STARLINK-35992 (66852 NORAD) Tracking and Keplerian Element Data

This shows tracking and keplerian element data for the satellite.

Feedback or suggestion? Click here.




ElementValue
Catalog66852
NameSTARLINK-35992
Epoch Orbit260
Epoch Day354.25003472
Epoch Year2025
RAAN76.3729
Inclination43.0004
Eccentricity0.0001127
Argument of Perigee274.7983
Mean Anonmoly219.078
Mean Motion15.7542286
Decay Rate-0.01726765
L11 66852U 25281E 25354.25003472 -.01726765 00000+0 -12534-1 0 9998
L22 66852 43.0004 76.3729 0001127 274.7983 219.0780 15.75422860 2600



Live tracking and technical data element details for STARLINK-35992 (NORAD 66852). STARLINK-35992 can be tracked NOW for your location showing map with azimuth and elevation plus other details from your city location.







IsCatalogInMostPopularTable: catalog: 66852, numindb: 11
Update: records affected: 1



GetName: 66852 STARLINK-35992

Hit Count: updated at: Mon, 09 Feb 2026 07:52:45 GMT